Date String (YYYY-MM-DD hh:mm:ss) UTC,Instrument flags,absolute air pressure of the measurement (hPa),sample flow rate (lpm),inlet stack bypass flow (lpm),air temperature of the measurement (°C),ambient temperature measured by the external sensor (°C),aerosol sample conditioner tube jacket temperature (°C),OPC LED temperature (°C),internal box temperature (°C),relative humidity of the measurement (%),span deviation,mass concentration of particles derived from Lorenz-Mie calculation of OPC scattering (μg/m³),mass concentration of particles derived from Lorenz-Mie calculation of OPC scattering (μg/m³),mass concentration of particles derived from Lorenz-Mie calculation of OPC scattering (μg/m³)
DateTimeUTC,F1_M11,P_M11,Q1_M11,Q2_M11,T1_M11,T2_M11,T3_M11,T4_M11,T5_M11,U1_M11,ZSPAN_M11,X2_M11,X0_M11,X1_M11
2024-04-18 01:00:00,SystemResetWarning,0825.4,5.00,000.00,026.1,025.6,000.0,034.2,028.0,020.1,0000.0,0003.88,0017.77,0002.35
2024-04-18 01:01:00,SystemResetWarning,0825.4,5.00,000.00,026.1,025.6,000.0,034.2,028.0,020.0,0000.0,0003.87,0017.25,0002.35
2024-04-18 01:02:00,SystemResetWarning,0825.6,4.99,000.00,026.1,025.6,000.0,034.2,028.0,020.0,0000.0,0003.92,0018.56,0002.36
2024-04-18 01:03:00,SystemResetWarning,0825.6,4.99,000.00,026.2,025.6,000.0,034.3,028.1,020.0,0000.0,0003.91,0020.24,0002.34
2024-04-18 01:04:00,SystemResetWarning,0825.7,5.00,000.00,026.2,025.7,000.0,034.3,028.1,019.9,0000.0,0003.92,0021.52,0002.34
2024-04-18 01:05:00,SystemResetWarning,0825.7,5.00,000.00,026.2,025.7,000.0,034.4,028.1,019.9,0000.0,0003.92,0021.41,0002.35
2024-04-18 01:06:00,SystemResetWarning,0825.8,5.01,000.00,026.3,025.7,000.0,034.4,028.1,020.0,0000.0,0003.88,0021.52,0002.36
2024-04-18 01:07:00,SystemResetWarning,0825.8,5.00,000.00,026.3,025.7,000.0,034.4,028.2,019.8,0000.0,0003.87,0020.81,0002.37
2024-04-18 01:08:00,SystemResetWarning,0825.9,5.00,000.00,026.3,025.5,000.0,034.5,028.0,019.8,0000.0,0003.83,0020.78,0002.37
2024-04-18 01:09:00,SystemResetWarning,0825.9,4.98,000.00,026.0,023.2,000.0,034.5,026.8,020.1,0000.0,0003.87,0019.96,0002.37
2024-04-18 01:10:00,SystemResetWarning,0825.9,5.03,000.00,025.5,022.0,000.0,034.5,026.0,020.8,0000.0,0003.90,0019.13,0002.37
2024-04-18 01:11:00,SystemResetWarning,0826.0,4.99,000.00,025.3,022.2,000.0,034.4,026.0,021.0,0000.0,0003.94,0019.20,0002.37
2024-04-18 01:12:00,SystemResetWarning,0825.9,4.99,000.00,025.2,022.6,000.0,034.2,026.4,021.2,0000.0,0003.93,0019.39,0002.39
2024-04-18 01:13:00,SystemResetWarning,0826.0,5.01,000.00,025.2,023.0,000.0,034.1,026.6,021.2,0000.0,0003.87,0018.89,0002.39
2024-04-18 01:14:00,SystemResetWarning,0826.0,5.00,000.00,025.3,023.3,000.0,034.0,026.8,021.2,0000.0,0003.80,0017.30,0002.39
2024-04-18 01:15:00,SystemResetWarning,0826.0,5.00,000.00,025.3,023.7,000.0,034.0,027.0,021.2,0000.0,0003.80,0016.16,0002.38
2024-04-18 01:16:00,SystemResetWarning,0826.0,5.00,000.00,025.3,023.9,000.0,034.0,027.1,021.2,0000.0,0003.76,0016.76,0002.38
2024-04-18 01:17:00,SystemResetWarning,0826.0,5.00,000.00,025.4,024.2,000.0,034.0,027.2,021.1,0000.0,0003.72,0017.22,0002.36
2024-04-18 01:18:00,SystemResetWarning,0826.0,4.99,000.00,025.4,024.4,000.0,033.9,027.3,021.1,0000.0,0003.70,0016.36,0002.35
2024-04-18 01:19:00,SystemResetWarning,0826.0,5.00,000.00,025.5,024.6,000.0,033.9,027.4,021.1,0000.0,0003.69,0016.36,0002.35
2024-04-18 01:20:00,SystemResetWarning,0826.1,5.00,000.00,025.5,024.7,000.0,033.9,027.4,021.0,0000.0,0003.66,0015.82,0002.35
2024-04-18 01:21:00,SystemResetWarning,0826.2,5.00,000.00,025.6,024.8,000.0,034.0,027.5,020.9,0000.0,0003.59,0015.68,0002.33
2024-04-18 01:22:00,SystemResetWarning,0826.2,5.00,000.00,025.6,024.9,000.0,034.0,027.6,020.9,0000.0,0003.53,0014.98,0002.32
2024-04-18 01:23:00,SystemResetWarning,0826.3,5.00,000.00,025.7,025.0,000.0,034.0,027.6,020.8,0000.0,0003.49,0014.01,0002.30
2024-04-18 01:24:00,SystemResetWarning,0826.3,5.00,000.00,025.7,025.1,000.0,034.0,027.7,020.8,0000.0,0003.48,0012.57,0002.28
2024-04-18 01:25:00,SystemResetWarning,0826.2,5.00,000.00,025.8,025.2,000.0,034.1,027.7,020.7,0000.0,0003.46,0013.03,0002.27
2024-04-18 01:26:00,SystemResetWarning,0826.3,5.01,000.00,025.8,025.3,000.0,034.1,027.8,020.7,0000.0,0003.44,0012.88,0002.28
2024-04-18 01:27:00,SystemResetWarning,0826.4,5.01,000.00,025.9,025.4,000.0,034.1,027.9,020.6,0000.0,0003.42,0011.08,0002.29
2024-04-18 01:28:00,SystemResetWarning,0826.4,5.00,000.00,025.9,025.4,000.0,034.1,027.9,020.6,0000.0,0003.44,0010.40,0002.29
2024-04-18 01:29:00,SystemResetWarning,0826.6,4.99,000.00,026.0,025.5,000.0,034.2,027.9,020.6,0000.0,0003.50,0010.75,0002.28
2024-04-18 01:30:00,SystemResetWarning,0826.6,4.99,000.00,025.8,023.9,000.0,034.2,027.1,020.7,0000.0,0003.53,0010.29,0002.27
2024-04-18 01:31:00,SystemResetWarning,0826.5,5.03,000.00,025.4,022.0,000.0,034.2,026.0,021.3,0000.0,0003.55,0010.32,0002.26
2024-04-18 01:32:00,SystemResetWarning,0826.6,4.99,000.00,025.1,021.9,000.0,034.1,025.7,021.6,0000.0,0003.56,0010.76,0002.27
2024-04-18 01:33:00,SystemResetWarning,0826.6,5.00,000.00,025.0,022.3,000.0,034.0,026.0,021.8,0000.0,0003.57,0011.07,0002.29
2024-04-18 01:34:00,SystemResetWarning,0826.6,5.00,000.00,025.0,022.7,000.0,033.9,026.4,021.8,0000.0,0003.57,0011.30,0002.30
2024-04-18 01:35:00,SystemResetWarning,0826.6,5.00,000.00,025.0,023.1,000.0,033.8,026.6,021.8,0000.0,0003.57,0011.87,0002.31
2024-04-18 01:36:00,SystemResetWarning,0826.6,4.99,000.00,025.0,023.4,000.0,033.7,026.7,021.7,0000.0,0003.60,0010.82,0002.34
2024-04-18 01:37:00,SystemResetWarning,0826.6,5.00,000.00,025.1,023.7,000.0,033.7,026.9,021.7,0000.0,0003.60,0010.31,0002.34
2024-04-18 01:38:00,SystemResetWarning,0826.6,5.00,000.00,025.1,024.0,000.0,033.7,027.0,021.6,0000.0,0003.63,0010.37,0002.32
2024-04-18 01:39:00,SystemResetWarning,0826.6,5.00,000.00,025.2,024.2,000.0,033.7,027.1,021.6,0000.0,0003.62,0011.11,0002.32
2024-04-18 01:40:00,SystemResetWarning,0826.6,5.00,000.00,025.2,024.4,000.0,033.7,027.2,021.5,0000.0,0003.62,0011.04,0002.33
2024-04-18 01:41:00,SystemResetWarning,0826.6,5.00,000.00,025.3,024.5,000.0,033.7,027.2,021.4,0000.0,0003.61,0011.04,0002.35
2024-04-18 01:42:00,SystemResetWarning,0826.6,5.00,000.00,025.4,024.7,000.0,033.7,027.3,021.3,0000.0,0003.59,0011.28,0002.36
2024-04-18 01:43:00,SystemResetWarning,0826.6,4.99,000.00,025.4,024.8,000.0,033.7,027.4,021.2,0000.0,0003.60,0011.33,0002.37
2024-04-18 01:44:00,SystemResetWarning,0826.8,5.00,000.00,025.5,024.9,000.0,033.8,027.5,021.2,0000.0,0003.59,0011.22,0002.35
2024-04-18 01:45:00,SystemResetWarning,0826.8,5.00,000.00,025.5,025.0,000.0,033.8,027.5,021.1,0000.0,0003.57,0011.07,0002.33
2024-04-18 01:46:00,SystemResetWarning,0826.8,5.00,000.00,025.6,025.1,000.0,033.8,027.6,021.1,0000.0,0003.54,0010.97,0002.31
2024-04-18 01:47:00,SystemResetWarning,0826.8,5.00,000.00,025.6,025.2,000.0,033.9,027.6,021.1,0000.0,0003.51,0011.07,0002.29
2024-04-18 01:48:00,SystemResetWarning,0826.9,4.99,000.00,025.7,025.3,000.0,033.9,027.7,021.0,0000.0,0003.50,0011.31,0002.30
2024-04-18 01:49:00,SystemResetWarning,0827.0,5.01,000.00,025.7,025.3,000.0,033.9,027.7,021.0,0000.0,0003.52,0011.60,0002.30
2024-04-18 01:50:00,SystemResetWarning,0827.1,5.01,000.00,025.8,025.4,000.0,034.0,027.8,020.9,0000.0,0003.51,0011.31,0002.30
2024-04-18 01:51:00,SystemResetWarning,0827.1,5.01,000.00,025.8,025.4,000.0,034.0,027.8,020.8,0000.0,0003.44,0010.62,0002.29
2024-04-18 01:52:00,SystemResetWarning,0827.1,5.00,000.00,025.9,025.5,000.0,034.0,027.9,020.7,0000.0,0003.39,0010.94,0002.28
2024-04-18 01:53:00,SystemResetWarning,0827.1,4.99,000.00,025.9,025.5,000.0,034.1,027.9,020.7,0000.0,0003.38,0010.80,0002.27
2024-04-18 01:54:00,SystemResetWarning,0827.1,4.99,000.00,025.8,023.8,000.0,034.1,026.9,020.9,0000.0,0003.34,0010.92,0002.26
2024-04-18 01:55:00,SystemResetWarning,0827.0,5.01,000.00,025.3,021.9,000.0,034.1,025.8,021.5,0000.0,0003.38,0011.72,0002.27
2024-04-18 01:56:00,SystemResetWarning,0827.1,5.02,000.00,025.0,021.8,000.0,034.0,025.6,022.0,0000.0,0003.42,0011.86,0002.29
2024-04-18 01:57:00,SystemResetWarning,0827.1,5.00,000.00,024.8,022.2,000.0,033.9,025.9,022.1,0000.0,0003.46,0012.09,0002.29
2024-04-18 01:58:00,SystemResetWarning,0827.2,5.00,000.00,024.9,022.6,000.0,033.8,026.2,022.1,0000.0,0003.46,0012.29,0002.29
2024-04-18 01:59:00,SystemResetWarning,0827.1,5.00,000.00,024.9,023.0,000.0,033.7,026.5,022.1,0000.0,0003.50,0013.12,0002.29
